CAPE
0 0 0 0 0 0 0 0 0 0 0 0 0 0 0 0 0 0 0 0 0 0
0 0 0 0 0 0 0 0 0 0 0 0 0 0 0 0 0 0 0 0 0 0
0 0 0 0 0 0 0 0 0 0 0 0 0 0 0 0 0 0 0 0 0 0
0 0 0 0 0 0 0 0 0 0 0 0 0 0 0 0 0 0 0 0 0 0
0 0 0 0 0 0 0 0 0 0 0 0 0 0 0 0 0 0 0 0 0 0
0 0 0 0 0 0 0 0 0 0 0 0 0 0 0 0 0 0 0 0 0 0
0 0 0 0 0 0 0 0 0 0 0 0 0 0 0 0 0 0 0 0 0 0
0 0 0 0 0 0 0 0 0 0 0 0 0 0 0 0 0 0 0 0 0 0
0 0 0 0 0 0 0 0 0 0 0 0 0 0 2 0 0 0 0 0 0 0
0 0 0 0 0 0 0 0 0 0 0 0 0 1 6 2 0 0 0 0 0 0
0 0 0 0 0 0 0 0 0 0 0 0 0 1 4 6 0 0 0 0 0 0
0 0 0 0 0 0 0 0 0 0 0 0 0 1 3 1 0 0 0 0 0 0
0 0 0 0 0 0 0 0 0 0 0 0 0 0 1 0 0 0 0 0 0 1
0 0 0 0 0 0 0 0 0 0 0 0 0 0 1 2 0 0 0 0 0 0
CIN
0 0 0 0 0 0 0 0 0 0 0 0 0 0 0 0 0 0 0 0 0 0
0 0 0 0 0 0 0 0 0 0 0 0 0 0 0 0 0 0 0 0 0 0
0 0 0 0 0 0 0 0 0 0 0 0 0 0 0 0 0 0 0 0 0 0
0 0 0 0 0 0 0 0 0 0 0 0 0 0 0 0 0 0 0 0 0 0
0 0 0 0 0 0 0 0 0 0 0 0 0 0 0 0 0 0 0 0 0 0
0 0 0 0 0 0 0 0 0 0 0 0 0 0 0 0 0 0 0 0 0 0
0 0 0 0 0 0 0 0 0 0 0 0 0 0 0 0 0 0 0 0 0 0
0 0 0 0 0 0 0 0 0 0 0 0 0 0 0 0 0 0 0 0 0 0
0 0 0 0 0 0 0 0 0 0 0 0 0 0 -2 0 0 0 0 0 0 0
0 0 0 0 0 0 0 0 0 0 0 0 0 0 0 -1 0 0 0 0 0 0
0 0 0 0 0 0 0 0 0 0 0 0 0 0 0 0 0 0 0 0 0 0
0 0 0 0 0 0 0 0 0 0 0 0 0 0 0 0 0 0 0 0 0 0
0 0 0 0 0 0 0 0 0 0 0 0 0 0 0 0 0 0 0 0 0 -1
0 0 0 0 0 0 0 0 0 0 0 0 0 0 0 0 0 0 0 0 0 0
Wind_Speed
15 17 19 20 21 22 22 22 20 20 20 20 19 20 20 20 22 21 21 21 22 22
14 14 17 18 19 21 22 22 21 20 20 20 20 21 20 21 22 21 22 22 22 21
16 17 17 16 17 18 19 19 20 20 20 20 21 21 21 21 21 21 23 24 23 24
18 19 19 19 19 19 18 18 19 19 19 19 20 20 21 22 22 24 24 24 25 24
20 21 21 20 20 19 19 19 19 19 19 18 18 19 20 23 23 23 24 23 23 24
23 23 22 21 20 19 19 19 18 19 19 19 21 23 24 24 24 24 23 23 23 23
22 22 21 20 19 19 18 17 16 17 18 20 22 22 22 21 20 20 21 21 23 22
21 19 18 19 17 16 15 15 15 18 20 20 21 21 20 20 23 23 22 21 22 22
18 17 17 16 16 15 15 17 19 20 20 20 21 20 22 23 23 23 23 24 24 24
17 17 17 17 17 17 17 17 18 19 20 21 23 24 23 22 23 23 23 24 25 24
17 17 17 16 17 17 18 18 19 20 20 21 21 22 23 24 23 23 24 24 23 23
18 18 18 17 17 18 18 19 19 20 20 22 23 24 24 23 22 23 22 21 23 23
19 19 18 18 18 18 18 19 20 21 21 21 22 23 22 21 21 21 21 21 21 22
20 19 19 19 19 19 19 19 19 20 19 19 18 20 19 18 19 21 20 19 20 20
Wind_Direction
271 270 269 266 264 262 259 258 258 260 263 266 267 270 275 274 281 281 282 285 288 290
281 280 278 274 269 266 263 260 259 260 262 265 268 269 271 273 280 280 282 285 288 289
287 287 284 280 275 271 267 261 259 260 262 265 267 269 273 274 278 279 281 283 285 288
289 289 287 283 279 274 271 265 260 259 261 263 266 268 273 274 277 278 281 283 284 286
292 290 287 284 281 277 273 268 263 262 264 266 270 273 274 277 277 278 280 281 283 284
294 291 288 286 283 280 276 271 266 264 264 267 272 276 278 279 280 279 279 280 281 283
299 295 294 290 288 285 280 274 269 269 273 276 277 277 279 279 280 282 281 281 283 284
310 307 305 297 294 290 285 280 276 277 279 279 278 278 277 280 281 280 280 282 284 287
319 314 309 304 300 296 292 286 283 280 279 278 280 279 279 280 279 280 279 280 283 287
317 312 307 304 301 297 292 289 286 284 283 281 282 280 279 279 279 280 281 283 285 286
323 319 315 309 304 299 295 290 287 286 285 284 283 282 282 280 280 281 282 282 285 288
326 321 316 311 307 303 299 295 291 289 287 285 285 284 283 284 283 282 284 284 287 288
327 324 319 314 310 307 303 299 297 293 291 289 287 286 285 286 284 284 285 287 289 290
328 325 322 318 314 310 305 303 300 296 295 294 291 291 291 288 287 286 287 289 292 295